Wind_Gust
5 2 3 3 4 3 5 7 6 10 6 8 6 6 14 5 11 13 12 11 8 6 5 9 9 6 7 10 18 10 6 6 4 13 10 13 7 16 16 22 20 19 20 19 15 15 17 19 21 22 21 23 23 22 22 22 22 21 22 22 23 22 23 24 25 25 26 25 25 25 26 27 26 25 25 25 24 22 21 24 24 24 24 24 23 22 20 19 20 19 19 17 18 18 19 19 19
2 1 2 3 3 2 5 6 8 3 9 6 15 5 11 4 1 10 14 13 6 9 3 13 18 24 22 18 14 6 9 11 4 7 9 8 13 14 16 22 23 23 20 19 16 15 14 18 21 21 23 24 23 22 21 22 22 22 21 21 23 24 23 24 25 25 26 25 25 25 26 25 26 26 26 24 23 22 19 22 23 23 23 23 22 21 20 18 16 18 17 17 17 18 18 18 17
3 3 6 4 7 6 4 6 7 3 4 9 15 16 5 5 8 13 16 14 7 10 6 6 9 7 3 4 9 6 4 6 15 13 15 10 21 10 14 19 20 21 22 19 18 17 15 16 19 21 24 23 23 23 23 22 21 22 21 22 24 23 23 24 24 24 24 25 25 24 24 25 24 25 26 24 23 21 18 19 22 22 21 21 21 21 20 20 19 17 17 17 17 17 17 17 17
3 3 7 5 5 8 7 6 7 12 6 12 12 11 7 7 13 16 12 15 6 6 5 9 12 9 6 16 8 7 7 5 5 14 24 21 14 18 17 17 16 17 19 20 18 17 16 18 20 21 23 24 24 23 23 22 22 22 22 23 23 23 22 22 22 24 24 25 24 23 23 23 23 24 25 24 22 21 18 17 19 21 21 20 21 19 19 19 18 18 18 18 18 18 18 17 16
2 3 4 5 11 4 8 8 7 8 10 12 9 9 7 8 14 11 11 6 3 7 5 8 12 7 6 9 3 7 7 8 10 8 21 8 14 16 19 18 18 20 20 19 18 17 17 24 21 19 21 25 23 23 23 23 22 22 22 22 23 23 22 22 22 23 23 24 23 22 22 22 23 24 24 23 22 22 22 21 20 21 20 20 19 17 15 15 16 17 17 17 18 18 17 16 16
6 4 4 5 6 6 9 4 5 6 13 8 5 12 8 10 9 8 15 17 4 2 11 6 12 9 9 3 5 8 13 12 11 5 13 13 19 18 19 19 20 20 18 17 16 15 17 22 20 20 21 24 24 23 22 22 22 21 21 21 23 23 23 22 22 24 24 24 22 21 21 22 23 23 22 22 21 22 22 21 20 19 19 19 18 15 14 15 15 17 17 18 19 18 17 16 15
6 8 5 6 4 9 10 5 5 7 17 11 12 15 15 14 10 6 15 13 3 7 6 11 16 13 14 6 7 6 9 9 15 12 7 19 19 19 19 18 20 20 19 18 17 16 19 21 21 21 22 24 25 24 23 23 22 21 21 22 23 24 24 23 22 23 23 23 21 21 20 21 23 24 22 22 21 20 20 21 22 20 18 17 16 15 14 15 15 17 17 18 18 17 16 14 13
2 7 7 7 8 4 4 4 8 10 13 14 9 11 19 17 8 5 13 4 6 8 4 14 6 16 4 4 8 8 10 4 10 14 18 20 19 18 16 20 22 20 20 19 17 16 21 22 22 21 22 23 24 23 24 24 22 22 21 22 23 22 23 22 21 20 20 21 21 21 20 21 23 23 22 21 22 22 22 22 22 19 17 16 15 14 14 14 15 16 17 18 17 16 15 14 14
4 8 3 9 6 7 3 7 11 7 14 10 15 15 20 17 15 10 15 10 2 5 11 6 4 12 8 6 5 7 6 10 14 19 19 18 18 17 18 19 24 22 19 19 18 16 17 19 20 20 22 22 24 25 24 23 22 22 21 22 22 19 20 21 21 21 20 18 19 19 20 20 21 21 21 22 22 21 22 21 20 19 17 15 15 15 15 15 15 16 17 17 16 15 14 15 15
5 5 7 11 8 5 4 12 3 10 10 10 15 17 17 16 14 10 14 10 6 7 3 5 2 11 11 11 5 4 4 10 19 16 15 15 16 14 15 16 20 24 20 18 18 17 15 21 19 19 20 21 22 23 22 21 20 20 20 20 19 18 20 20 18 18 18 18 18 17 18 19 19 18 19 21 22 21 21 21 20 18 17 15 15 15 15 15 15 16 16 16 15 14 14 15 16
9 6 5 8 3 5 9 10 8 11 10 12 15 20 22 18 11 15 6 5 3 10 6 9 13 16 9 6 4 5 2 10 20 20 14 14 13 14 14 11 16 22 23 19 17 15 16 17 22 18 19 20 20 19 18 18 18 18 18 17 17 19 20 18 17 17 17 17 18 18 17 18 19 19 20 21 22 21 21 20 19 18 15 14 14 14 14 14 15 15 15 15 14 13 14 13 14
6 7 5 6 7 11 8 7 8 15 17 11 17 16 7 13 8 8 5 11 5 7 6 3 18 10 10 9 6 4 6 6 10 17 16 13 14 14 15 14 15 14 19 19 16 14 14 14 16 20 20 18 18 17 16 17 17 17 18 17 17 17 18 17 17 16 16 17 16 15 16 18 19 19 19 20 20 20 20 19 18 16 15 14 14 14 13 13 14 13 14 14 14 14 13 13 12
8 4 8 7 7 4 5 4 12 9 13 13 9 6 2 5 7 9 4 9 5 7 5 4 21 5 10 9 5 2 6 5 8 14 14 14 14 14 12 15 14 15 16 17 16 15 14 14 15 16 17 21 17 16 15 16 16 17 17 16 16 17 17 16 16 16 15 16 15 15 15 15 16 18 18 20 20 20 20 18 18 16 14 13 13 13 12 12 12 13 14 14 14 13 13 14 13
10 12 12 9 3 5 3 8 7 7 12 13 8 6 4 4 3 9 11 9 2 4 3 18 14 13 10 11 7 8 11 7 10 11 14 13 13 13 13 14 14 16 14 15 17 16 15 13 14 12 15 14 12 16 16 16 15 17 16 15 16 16 16 16 16 15 15 16 17 16 15 15 16 17 17 19 20 20 18 17 17 16 14 12 12 12 11 11 11 12 14 14 13 12 15 15 14
7 5 6 5 6 2 7 8 7 6 13 5 11 6 6 4 4 4 12 11 6 4 14 4 16 9 14 16 13 21 18 12 13 14 15 14 11 12 14 14 14 14 15 14 15 16 15 13 12 11 10 11 12 10 10 16 17 16 15 15 15 15 15 15 16 15 17 17 18 16 17 17 17 17 17 18 17 19 18 16 16 14 14 12 11 11 10 11 11 12 13 12 12 13 14 14 13
9 7 6 6 8 6 11 7 4 3 17 3 10 7 3 3 8 7 6 9 9 6 6 10 6 8 10 22 16 26 20 15 15 17 18 15 12 12 16 15 13 13 14 14 15 13 13 13 11 12 12 10 9 8 10 10 15 16 15 15 16 15 15 15 15 16 18 18 19 19 20 19 18 16 19 18 19 19 16 13 15 13 13 12 10 10 10 10 11 11 11 10 11 14 14 13 13
3 4 5 6 9 4 9 9 5 4 12 10 11 6 4 5 6 7 4 10 21 8 2 3 6 5 20 11 8 24 19 15 17 20 18 16 16 14 12 11 12 11 13 14 12 12 12 13 12 12 12 11 11 10 10 9 14 18 15 18 18 18 16 17 16 17 17 17 15 14 13 11 10 11 14 11 17 14 13 16 14 14 13 13 10 9 9 10 10 10 9 9 11 14 13 12 10
5 10 9 6 10 4 9 9 9 3 5 10 7 3 8 6 9 5 6 13 7 5 6 6 9 12 5 3 19 21 16 18 20 23 20 18 15 16 13 12 12 12 14 14 10 11 13 12 13 14 14 13 12 12 11 10 11 13 9 11 12 15 16 16 16 13 13 10 15 13 9 10 9 8 10 13 10 14 14 16 15 14 13 13 10 8 9 9 9 8 8 9 13 15 13 10 8
11 8 9 15 8 14 6 7 8 5 10 6 10 6 4 4 3 3 11 3 2 6 4 4 6 9 12 15 21 22 17 16 19 19 19 19 17 17 16 14 14 14 13 13 12 13 12 13 13 14 14 14 13 11 10 9 10 9 9 10 11 11 12 12 10 13 9 10 10 10 9 8 8 8 9 11 10 13 14 15 14 14 13 12 11 9 8 8 8 7 7 9 14 14 10 8 9
11 9 10 15 9 7 7 8 15 11 10 15 5 5 4 6 4 2 8 6 2 10 7 4 3 5 12 15 19 19 17 17 17 17 17 15 14 17 15 15 14 13 14 15 16 14 14 13 14 14 15 14 13 11 10 9 10 10 10 9 8 9 10 10 10 10 9 9 11 9 10 9 7 7 14 18 15 11 12 14 15 13 13 12 11 7 8 7 8 6 6 9 9 8 8 8 10
8 10 14 12 7 8 14 10 15 14 5 9 3 3 6 7 5 5 9 10 3 7 7 11 14 11 15 17 20 19 19 19 17 16 16 15 12 13 15 13 16 16 17 15 14 14 13 12 13 14 14 13 12 12 12 12 11 11 10 10 9 9 9 8 8 6 7 8 8 8 9 8 7 6 6 7 8 9 6 8 9 7 6 5 8 6 6 6 5 3 4 7 7 7 9 8 9
7 13 7 6 2 4 14 6 7 8 7 7 4 3 4 5 4 9 13 9 10 13 12 13 13 17 21 20 19 18 18 20 19 18 17 15 14 16 18 11 10 8 9 14 13 14 14 13 13 12 13 12 12 13 12 13 13 11 10 10 9 7 9 8 8 8 8 8 7 8 7 9 7 6 4 6 7 7 8 8 8 8 7 7 6 6 6 5 2 1 2 4 6 6 10 9 7
12 8 6 8 10 13 10 2 8 8 9 7 6 3 3 3 6 8 12 9 10 12 7 13 13 20 21 22 22 17 16 17 14 13 11 8 15 19 22 21 19 14 10 8 11 12 13 11 10 12 14 13 11 9 9 10 9 8 7 7 9 8 8 10 9 9 9 8 8 8 10 8 8 6 7 6 7 6 8 8 8 8 7 6 6 7 5 3 2 1 2 4 6 5 6 9 9
8 17 4 11 7 15 16 9 9 6 8 10 6 4 5 6 10 4 8 5 10 5 2 8 9 9 13 20 18 22 17 16 19 23 24 24 21 15 21 22 17 13 11 9 12 11 8 9 9 10 8 8 8 9 9 8 7 7 7 9 8 9 9 8 8 8 9 10 9 9 8 8 9 8 7 7 6 5 7 7 7 7 7 6 6 6 6 4 2 1 2 6 6 2 2 9 10
8 12 8 13 9 14 15 13 14 9 9 10 4 5 5 8 6 5 6 4 2 6 10 13 13 11 10 13 15 15 17 17 18 16 16 13 22 30 30 21 15 13 15 19 20 17 13 5 5 5 5 6 6 8 9 6 6 6 7 8 9 10 9 9 9 7 8 6 6 7 7 8 5 7 8 8 7 6 5 7 8 8 7 6 5 4 5 5 2 1 6 4 2 1 3 9 10
12 17 10 8 11 11 12 7 11 12 10 4 4 7 9 10 3 6 9 4 4 9 11 13 13 13 14 12 14 17 16 17 17 17 17 13 15 18 18 20 14 20 21 21 20 19 16 6 5 6 7 6 6 7 6 7 7 9 7 9 8 11 8 8 7 8 7 8 7 6 6 8 8 8 8 6 8 7 5 4 6 6 7 6 6 7 5 6 5 5 6 4 5 3 8 7 9
7 5 7 12 16 13 8 11 8 12 11 6 10 6 10 4 9 13 4 2 10 9 11 9 14 16 13 14 14 14 17 17 19 19 17 16 16 15 18 15 17 22 22 20 19 21 15 10 9 9 6 7 7 7 6 6 6 7 7 6 6 9 9 9 7 7 7 6 7 5 5 6 7 6 6 6 4 5 4 5 5 5 5 6 6 5 2 4 4 6 6 7 6 8 9 7 9
5 6 7 9 13 9 9 4 9 4 8 10 10 11 8 5 4 10 5 5 9 15 10 11 10 11 14 15 14 12 14 14 17 19 20 18 21 19 14 18 17 20 20 18 19 19 17 15 12 10 12 11 9 9 10 10 7 8 6 7 7 8 8 9 9 8 9 8 6 6 6 6 6 7 6 6 5 5 4 3 4 4 4 3 5 5 6 4 5 7 8 6 7 8 10 9 8
6 3 7 12 9 10 2 10 8 7 10 7 9 3 7 5 8 9 12 9 8 13 13 12 9 10 12 14 14 14 16 14 15 16 19 20 17 16 14 14 23 20 15 20 19 17 18 18 17 13 12 10 10 12 14 12 12 11 7 7 8 10 10 9 10 11 11 10 9 8 7 6 5 8 6 7 6 6 4 4 4 4 5 4 7 8 8 8 8 9 7 6 9 9 11 10 9
4 2 7 6 8 8 10 3 2 8 5 11 7 12 16 14 13 3 8 11 8 5 10 10 9 11 13 13 14 13 13 14 15 15 13 12 18 18 17 16 19 23 21 20 17 18 17 15 15 15 16 16 13 13 11 11 12 13 12 8 8 9 9 10 9 10 11 11 10 8 9 7 6 5 7 5 6 6 5 5 7 6 5 6 9 10 11 7 8 9 7 7 8 9 9 8 10
7 7 3 6 2 11 8 4 3 8 4 7 6 10 18 17 12 8 8 13 15 13 11 8 9 9 12 13 14 15 15 15 15 11 11 13 14 15 20 22 22 22 23 25 30 24 20 17 16 18 20 18 16 15 13 16 17 15 11 9 9 8 8 8 7 8 9 10 9 9 9 8 7 6 5 8 6 7 7 6 5 7 6 9 9 8 9 7 7 9 8 10 8 9 9 8 10
4 5 10 9 5 12 9 6 6 7 4 3 8 9 20 16 14 8 10 10 13 15 13 11 11 12 13 13 13 14 13 10 8 9 11 13 10 10 15 15 8 6 9 13 13 13 13 11 8 8 13 17 14 16 14 16 14 11 9 10 10 7 7 7 8 8 8 8 8 9 8 8 8 7 7 7 8 6 8 8 6 6 8 11 8 8 9 10 7 7 5 11 12 7 10 10 10
10 5 8 4 2 9 13 3 3 10 7 1 10 16 8 9 8 11 8 12 10 13 10 10 12 12 13 14 14 11 11 6 6 10 10 6 5 6 9 9 9 9 9 9 10 14 13 17 10 6 7 11 11 11 13 14 10 11 10 9 9 8 9 9 8 7 7 8 8 9 9 8 8 8 8 7 8 8 7 7 6 6 7 11 8 9 10 8 10 8 5 4 7 10 10 11 11
8 5 5 5 2 5 7 14 5 3 6 5 6 13 14 11 6 3 4 13 12 14 17 13 13 12 12 12 11 12 10 12 15 13 10 8 10 12 11 13 13 12 11 14 16 20 21 18 19 15 12 10 12 16 17 12 10 9 8 9 9 9 8 8 8 8 9 8 9 9 9 8 8 8 8 7 7 7 7 7 7 7 7 8 8 8 9 7 7 10 10 4 6 12 11 12 12
7 3 5 8 4 2 8 6 6 3 5 12 5 9 17 17 6 3 12 12 18 18 20 11 13 12 12 10 9 8 11 15 16 9 9 9 11 13 16 16 16 16 16 19 18 18 19 18 16 21 23 22 21 15 11 15 12 7 8 11 9 8 7 6 7 8 9 9 10 9 9 8 9 8 8 8 9 8 8 7 8 7 7 7 7 7 8 8 8 6 10 8 7 6 10 11 14
8 4 3 3 5 9 9 10 7 4 5 12 9 16 20 18 6 4 6 14 16 20 5 9 5 2 2 6 6 9 12 14 10 9 11 10 11 15 17 19 20 21 22 19 15 17 21 25 25 27 27 28 22 14 14 14 13 12 12 11 14 14 10 10 8 9 9 10 9 9 10 8 8 9 8 8 8 9 8 8 8 7 6 7 8 7 6 8 10 9 8 10 10 11 10 11 14
3 3 2 4 4 11 8 9 13 6 7 15 18 16 11 8 3 11 3 5 11 8 9 8 8 8 10 8 8 9 12 11 10 12 11 13 14 16 15 17 20 22 19 13 15 19 20 17 15 25 26 21 17 14 13 17 17 16 13 13 12 12 12 11 11 9 9 8 8 9 9 9 8 8 9 9 9 8 7 7 7 6 6 7 8 7 6 7 7 6 10 8 12 13 8 9 12
2 2 3 9 2 11 11 9 10 6 17 11 8 7 10 8 7 10 7 6 10 15 12 13 11 12 10 10 12 11 7 6 15 13 11 13 16 16 17 17 16 21 13 13 18 17 11 9 10 11 12 14 19 14 12 12 13 15 15 15 14 12 12 15 13 10 10 8 9 8 8 9 9 9 9 8 8 8 9 8 8 9 8 7 5 5 5 6 7 7 9 10 4 10 11 11 15
2 6 4 3 12 9 14 7 6 5 9 14 3 8 13 4 7 13 13 7 6 10 17 19 19 15 14 15 11 10 12 11 7 12 12 15 18 18 18 17 16 11 14 17 13 12 13 13 12 14 16 23 33 41 39 33 24 18 17 13 12 10 7 7 8 7 8 9 8 9 8 10 10 9 8 9 10 8 8 9 9 9 9 9 8 7 7 8 10 10 9 12 11 6 9 9 11
5 6 3 9 7 5 14 11 10 11 6 6 5 6 8 11 7 11 16 18 13 8 9 15 13 12 14 16 15 12 9 12 11 11 11 11 13 11 8 10 8 8 9 9 9 14 15 14 16 20 23 21 19 25 31 30 29 23 16 9 8 8 7 8 8 8 8 9 10 10 8 9 9 9 8 8 8 8 9 9 9 9 10 9 11 11 9 10 11 10 9 9 12 13 10 7 5
4 6 7 4 4 7 12 12 8 5 5 7 12 11 7 15 17 20 16 18 20 25 19 20 19 11 6 10 11 9 12 14 15 13 12 13 18 17 15 13 10 9 12 13 14 16 17 18 20 25 23 25 27 28 27 23 22 15 11 9 8 8 8 9 9 8 10 11 10 9 11 9 9 10 9 9 8 9 7 8 8 9 9 9 9 10 11 13 13 12 11 12 13 17 13 10 9
6 9 13 10 8 7 2 5 6 16 10 10 8 10 7 12 12 14 17 14 21 17 22 20 19 18 13 10 9 10 8 11 18 20 20 16 12 12 12 12 11 9 13 13 13 14 13 16 19 18 10 9 7 11 19 23 24 25 18 15 14 14 11 14 16 14 12 13 13 8 8 9 10 9 9 9 8 7 9 9 8 9 9 10 10 10 10 10 11 11 12 13 11 9 18 14 14
5 16 14 12 7 6 5 2 9 6 9 4 4 14 8 10 18 18 18 13 14 20 23 19 19 20 19 7 13 11 14 12 8 10 13 12 11 13 12 12 10 9 10 6 7 9 11 15 17 9 12 10 11 9 14 20 18 20 26 26 21 19 16 12 8 8 11 8 8 9 9 8 9 11 10 9 9 9 8 8 8 9 9 9 9 9 10 12 12 13 11 10 11 12 10 16 15
13 9 7 8 9 9 6 8 6 7 7 8 10 10 11 9 15 12 16 10 15 21 25 25 25 22 21 20 14 8 8 10 13 12 13 12 12 16 19 10 7 9 7 9 12 15 14 14 16 14 9 9 9 8 10 15 18 16 17 15 14 14 13 10 10 8 6 10 10 9 8 9 9 9 11 10 9 9 9 9 9 9 10 10 10 12 13 11 11 9 12 10 10 12 13 16 14
14 9 10 10 11 7 8 8 5 2 5 8 11 4 14 5 13 14 12 17 20 19 20 22 23 22 20 18 16 11 8 10 16 15 15 15 15 16 14 12 8 12 13 15 12 15 16 15 15 14 11 10 10 9 6 12 12 11 14 13 11 8 9 11 10 10 9 7 6 6 8 8 8 7 8 9 9 9 10 10 9 8 9 9 10 10 10 12 13 14 11 11 11 10 11 10 14
13 9 6 6 8 7 8 8 8 3 8 4 6 4 14 6 10 16 12 8 20 19 17 20 20 21 21 20 16 15 13 11 12 12 12 11 12 12 13 12 10 4 7 16 14 14 15 12 14 13 11 10 9 8 9 8 7 4 6 10 13 11 11 10 11 11 10 8 8 7 7 8 9 8 8 8 8 8 9 9 10 9 10 9 9 10 9 11 12 14 15 13 12 12 8 9 14
3 8 7 6 13 6 7 11 10 8 3 11 9 4 13 8 6 14 13 11 9 14 15 17 18 19 19 18 18 17 15 14 14 13 14 12 11 12 12 12 9 8 8 9 16 17 17 16 10 8 7 8 9 8 8 6 6 3 1 3 7 9 9 11 11 11 11 9 10 9 9 10 9 10 9 9 8 8 8 9 10 10 9 9 10 9 11 12 12 13 13 10 11 12 10 9 6
8 13 10 4 5 12 10 8 11 9 8 8 5 6 6 14 5 9 10 10 12 12 13 16 17 18 18 16 17 17 16 15 15 16 16 13 14 14 14 13 10 8 8 11 10 10 12 13 12 11 8 9 8 7 6 5 4 3 4 4 6 7 10 12 14 14 13 13 11 11 9 7 8 8 8 8 9 9 9 9 9 7 8 8 10 9 9 9 9 9 11 12 12 10 8 10 8
10 12 12 13 10 8 13 6 8 9 13 5 7 8 14 13 6 9 9 10 11 11 13 14 14 15 15 16 17 16 17 16 16 16 17 14 14 14 12 10 11 10 10 10 11 12 12 11 10 11 10 9 10 10 9 7 2 7 7 6 6 9 10 11 13 12 11 13 12 10 9 10 7 7 9 11 10 10 11 10 9 9 9 8 7 7 7 8 9 9 10 10 10 10 12 11 10
10 13 12 13 9 7 9 7 9 7 11 4 4 6 15 7 7 2 7 9 8 9 11 12 13 14 15 16 16 17 18 17 16 16 16 16 15 13 12 10 10 10 10 10 10 11 10 8 7 10 10 10 12 10 12 14 14 10 9 11 11 12 10 10 11 13 12 12 12 13 13 12 11 11 11 11 11 11 10 11 11 11 10 8 7 8 8 8 10 10 9 10 10 10 9 10 11
16 8 18 16 18 18 11 13 15 16 13 6 7 8 14 9 7 4 7 6 5 10 13 13 14 13 13 14 17 19 18 16 16 17 16 13 13 10 8 6 5 9 12 11 6 9 11 6 3 3 8 12 14 15 14 12 14 16 14 13 13 14 13 12 12 11 12 12 11 12 12 10 11 10 12 9 9 10 9 9 9 10 9 8 7 7 8 8 9 9 9 9 8 9 9 10 8
4 9 13 15 13 15 8 13 9 8 8 7 14 7 3 8 6 5 9 5 9 7 10 12 17 16 16 18 19 18 19 19 18 17 17 16 10 10 10 10 7 5 9 11 10 9 9 8 6 9 11 10 11 14 16 18 16 14 12 12 14 14 17 13 11 7 9 10 12 13 12 10 10 11 8 9 9 10 10 9 9 9 8 9 8 8 9 9 9 10 8 9 9 6 10 8 8
11 8 11 12 11 18 12 3 2 7 13 4 4 9 9 6 6 6 6 9 11 10 11 14 15 16 16 18 18 17 17 18 17 16 15 17 17 17 17 17 15 11 6 6 12 11 9 8 5 6 6 7 8 12 12 13 14 16 16 14 12 12 16 16 14 11 11 9 9 10 10 9 9 9 10 9 11 7 10 10 9 8 8 9 8 8 9 8 8 9 9 9 9 7 8 8 8
15 10 14 6 8 11 18 15 8 8 10 9 5 6 10 6 10 6 6 13 12 11 12 11 12 14 17 16 15 16 16 15 15 17 17 18 18 20 20 19 18 19 16 12 11 8 8 8 6 5 7 11 11 11 13 10 12 13 13 15 15 16 16 15 14 14 12 11 8 8 8 9 8 12 7 10 10 10 9 10 10 9 8 8 8 7 7 7 8 8 8 8 8 9 7 6 8
17 17 10 15 8 7 8 16 7 9 8 7 5 6 4 4 5 5 8 11 11 11 11 10 12 13 14 13 14 14 16 16 17 17 19 19 19 19 18 17 18 19 18 18 18 15 13 13 12 14 15 14 12 11 9 8 9 13 14 16 16 15 14 14 13 12 13 12 11 10 11 13 13 16 11 10 10 11 10 8 9 9 8 8 7 8 7 8 7 8 6 7 6 8 9 7 6
6 7 8 3 15 9 9 15 12 18 8 9 4 5 10 7 8 5 7 11 14 11 10 12 13 13 14 13 14 15 14 14 14 14 16 16 16 16 16 17 17 17 18 18 19 21 22 20 15 9 9 11 12 10 6 10 13 10 9 8 9 11 11 12 11 11 11 11 11 12 12 15 15 12 9 11 12 11 11 10 8 10 9 8 9 8 8 8 7 8 8 8 7 8 8 9 7
5 6 4 6 7 6 14 6 9 13 18 14 17 9 11 8 5 6 5 9 11 12 12 12 12 12 13 14 15 14 15 15 15 15 16 17 16 16 17 16 17 16 17 18 18 19 19 20 19 15 8 9 10 10 6 11 10 12 7 8 9 8 9 8 8 10 12 9 9 11 14 14 11 12 10 11 11 11 11 11 10 10 10 10 9 8 7 8 8 6 6 7 7 8 9 7 8
14 17 11 13 12 8 7 9 5 8 15 18 18 13 8 5 5 3 9 9 13 10 12 13 12 13 13 14 15 15 15 15 15 14 14 15 15 17 16 17 17 18 19 19 19 18 18 18 20 21 16 14 13 9 10 12 9 11 11 8 8 7 5 8 11 11 10 10 11 13 12 12 14 12 11 12 10 9 8 9 10 8 9 8 7 8 7 8 8 7 6 6 8 8 7 7 7
Wind_Speed
3 1 1 2 2 2 1 3 1 2 2 4 3 1 5 2 5 7 7 6 3 2 1 5 5 3 3 3 8 4 4 3 1 5 3 2 3 10 11 14 13 13 13 11 9 9 10 14 17 17 16 18 18 18 17 17 17 17 17 18 18 18 19 20 20 20 21 20 20 20 21 21 21 21 21 20 19 18 17 19 19 19 19 19 17 15 15 16 16 15 14 14 14 14 14 14 15
1 0 1 1 1 1 1 1 2 1 4 2 8 2 6 2 0 6 7 6 2 2 1 8 10 12 12 10 8 3 3 6 2 2 2 1 7 7 11 14 15 15 12 11 10 9 9 11 16 17 18 19 18 18 17 17 17 18 17 17 19 19 19 20 20 20 21 20 20 20 21 20 21 21 21 20 18 18 15 18 19 18 18 18 17 16 14 13 13 14 13 13 13 14 14 14 13
1 2 4 2 3 2 1 2 1 1 2 5 7 7 2 3 5 8 10 7 4 6 4 4 6 4 2 3 5 3 1 3 6 4 4 4 11 5 9 13 13 13 15 11 10 10 9 11 15 17 19 18 18 18 17 17 17 17 17 18 19 18 19 19 19 20 20 20 20 19 20 20 20 20 21 19 19 17 15 16 18 17 17 17 16 16 16 15 14 13 13 13 13 13 13 13 13
2 1 4 2 0 3 2 2 4 6 2 6 5 6 3 4 9 10 8 6 5 3 0 3 5 3 3 9 2 2 3 2 1 7 6 8 3 9 10 12 11 10 10 10 10 10 9 12 16 17 18 18 18 18 17 17 17 17 17 18 18 19 18 18 18 19 19 20 19 19 19 19 19 20 20 19 18 17 15 15 16 17 16 16 15 15 15 15 14 14 13 13 13 13 13 13 12
0 2 2 2 3 1 2 2 3 4 4 4 3 3 4 5 10 7 7 1 3 3 1 2 4 4 2 4 1 1 3 4 4 5 2 2 7 8 11 12 11 11 11 11 10 10 10 19 17 16 17 20 19 18 18 17 17 18 17 17 18 18 17 18 18 18 19 19 19 18 18 18 19 19 19 18 18 18 18 18 16 17 16 15 13 12 12 12 13 13 13 13 13 14 13 13 13
4 2 2 2 0 1 3 0 0 3 7 4 1 6 5 7 5 5 10 6 3 1 2 3 4 3 3 1 1 1 7 4 5 2 3 5 11 10 11 11 11 11 11 10 10 9 10 18 16 17 17 19 19 18 17 17 17 16 17 17 18 18 18 17 17 19 19 19 18 17 17 18 19 18 18 17 17 18 18 17 16 15 15 14 12 11 11 11 12 13 13 13 14 14 13 12 12
1 3 2 2 1 3 4 2 3 4 9 7 5 7 9 9 4 5 9 8 1 4 5 3 8 7 5 1 1 1 5 4 6 4 4 10 12 11 12 11 12 12 12 10 9 9 12 17 17 17 17 19 19 18 18 18 17 17 17 17 18 18 18 18 18 18 19 19 17 16 16 18 19 19 18 17 17 16 17 17 17 16 14 12 11 10 11 11 12 13 13 14 14 13 12 11 10
1 2 1 2 1 1 0 2 4 5 6 8 5 6 12 10 4 2 8 1 2 3 1 5 3 5 2 2 3 3 6 2 4 10 12 11 12 12 11 11 11 12 12 10 10 9 15 17 17 16 17 17 18 18 17 17 17 17 16 17 18 17 18 18 17 17 16 17 17 16 16 17 19 18 18 17 17 18 18 18 17 15 13 12 11 11 11 11 12 13 14 14 13 12 12 11 11
2 3 0 4 1 1 1 3 5 3 7 5 9 10 14 12 8 4 10 4 1 1 7 3 1 5 3 3 1 4 2 4 9 13 13 12 12 11 8 11 12 11 11 10 9 9 10 14 15 16 17 17 18 18 17 17 16 16 16 17 16 14 15 16 16 17 16 14 15 15 15 16 17 17 17 18 18 17 18 17 16 14 13 12 12 11 11 11 12 13 14 14 13 12 11 10 12
1 2 2 2 3 2 1 6 1 5 4 5 6 10 10 7 8 5 7 7 4 4 1 3 1 4 4 3 0 2 1 6 12 11 10 11 10 9 9 9 11 15 12 10 9 9 8 15 14 14 15 15 16 16 16 14 15 15 15 15 15 14 15 15 14 14 14 15 14 14 14 15 15 15 16 17 18 17 17 17 16 14 12 12 12 12 11 11 12 13 13 13 12 10 9 11 12
1 3 1 2 1 1 4 5 4 7 5 6 8 12 14 11 7 7 4 2 2 4 3 4 5 6 3 2 0 2 1 6 13 13 9 10 9 10 9 7 8 13 13 11 9 8 8 9 15 13 13 14 14 13 13 13 13 13 13 13 13 15 15 14 13 14 14 14 14 14 13 14 15 15 16 17 18 17 17 16 15 13 11 11 11 11 11 11 12 12 12 12 11 9 10 10 11
0 1 1 2 2 6 4 3 4 8 10 6 7 11 4 9 4 2 2 5 2 3 2 2 6 3 5 3 1 2 4 3 5 11 11 9 8 8 9 7 9 8 11 12 10 8 8 8 9 14 15 13 13 12 12 12 12 13 13 13 13 13 13 13 13 12 13 13 13 12 13 14 14 14 15 16 17 16 16 15 14 13 11 11 11 11 11 10 11 11 11 11 10 10 11 10 10
2 1 5 3 2 2 2 1 7 5 6 6 5 3 1 2 4 6 2 6 4 5 1 2 11 2 4 2 0 1 4 2 5 8 9 8 8 7 7 8 8 9 9 9 10 9 9 8 8 8 10 15 12 12 11 12 12 12 12 12 12 13 13 13 13 12 12 12 12 12 12 12 12 14 15 16 16 16 15 14 14 12 11 10 10 10 10 9 10 10 11 11 10 10 11 11 10
3 5 6 3 1 2 1 4 2 4 6 7 4 4 1 1 1 4 7 5 1 2 1 10 7 8 5 4 1 4 5 4 7 6 7 8 7 8 9 8 8 9 9 9 9 9 9 8 7 7 8 8 7 10 12 12 11 12 12 11 12 12 13 13 12 12 12 12 13 13 12 12 13 13 14 15 16 16 15 14 13 12 10 9 9 9 9 9 9 10 11 11 10 10 12 12 11
3 1 1 1 1 1 3 3 3 3 7 3 5 3 2 2 2 2 7 6 3 1 5 2 5 2 5 9 5 10 9 8 8 8 9 8 7 8 10 8 8 8 8 9 9 10 9 8 7 7 6 7 7 6 5 9 12 11 11 11 12 12 12 12 12 11 13 13 13 13 13 14 13 13 14 14 14 16 15 13 13 11 10 9 8 8 8 8 9 10 11 10 10 11 12 11 11
3 3 1 1 2 3 5 3 2 1 8 2 6 5 2 2 1 3 2 4 2 2 3 2 2 2 3 14 6 15 13 10 10 10 10 9 8 8 10 10 7 8 7 8 8 8 8 8 7 6 6 6 6 5 6 6 10 12 12 11 12 12 12 12 12 12 14 14 15 15 15 12 12 10 15 12 15 15 13 10 12 10 10 8 7 8 8 8 9 9 9 8 10 11 11 10 11
1 1 0 1 3 2 4 3 2 1 6 5 7 4 1 2 4 3 3 4 13 5 1 1 2 3 6 1 2 13 11 10 11 11 10 8 7 6 6 5 5 7 6 8 7 7 7 8 8 6 7 7 7 6 6 6 8 13 11 13 13 12 12 13 12 13 13 11 11 11 10 6 5 5 7 6 13 8 10 13 11 10 10 9 7 7 7 8 8 8 7 7 10 11 9 9 7
2 2 3 2 3 2 4 4 4 1 1 6 5 2 5 4 5 1 3 8 3 3 3 3 6 7 2 1 12 14 11 12 12 13 10 9 7 6 6 5 6 7 7 7 6 7 7 7 8 9 8 9 8 6 5 6 6 9 6 7 7 9 10 11 9 7 8 5 11 9 5 5 4 4 5 7 5 8 9 13 12 11 10 9 7 7 7 7 7 7 6 7 11 11 9 5 4
4 1 3 7 4 6 3 3 5 1 4 5 7 5 2 1 2 0 3 1 1 2 2 3 4 5 8 10 13 14 12 11 12 11 11 11 8 8 6 5 6 6 6 6 6 8 7 7 8 9 9 8 9 7 5 5 6 5 6 6 6 9 8 7 5 6 4 5 5 5 5 4 4 3 4 5 5 10 9 12 11 11 10 9 7 7 7 7 6 6 5 7 12 11 6 4 6
4 4 4 6 5 4 5 5 9 6 5 7 4 3 3 2 2 0 3 3 0 5 3 1 1 3 8 10 13 12 11 11 12 12 12 9 7 8 6 6 6 7 8 8 8 7 7 7 9 8 9 8 7 6 5 5 5 6 5 5 5 5 5 5 5 5 4 3 4 4 4 4 4 2 8 11 10 5 7 11 12 11 10 9 8 5 6 6 6 5 5 7 6 4 5 5 6
1 2 5 4 4 3 9 7 10 10 4 5 2 2 3 5 1 2 5 6 2 4 5 5 7 7 10 12 13 12 12 13 12 11 11 8 5 6 7 5 3 8 7 6 6 7 8 7 7 7 7 6 6 6 6 5 6 5 4 4 4 4 5 5 5 4 4 4 4 4 4 4 4 3 2 2 2 3 3 4 4 3 3 3 5 4 4 4 3 2 2 4 4 5 5 5 5
2 7 4 2 1 1 10 3 6 5 6 3 3 1 2 2 2 5 8 4 5 6 7 9 5 11 14 13 12 11 11 12 10 8 6 6 7 10 8 5 6 3 3 5 6 7 7 5 5 5 6 6 6 6 5 6 7 5 4 4 4 4 5 5 4 5 5 5 4 5 5 4 3 3 2 2 2 2 3 3 3 3 3 3 3 4 4 2 1 1 2 3 4 3 6 4 5
4 3 4 5 6 6 5 1 5 5 4 4 4 2 0 1 2 4 6 5 5 8 4 7 7 12 13 13 13 11 10 8 7 7 6 4 8 12 14 12 10 8 5 4 5 4 5 4 4 4 5 5 5 3 4 4 4 3 3 4 4 4 4 5 5 4 5 5 5 5 6 5 4 3 3 3 3 2 3 3 3 2 3 3 2 4 3 2 0 0 1 3 3 3 5 4 5
3 6 1 5 5 9 10 6 7 5 5 6 3 3 3 4 6 1 1 3 7 4 2 5 7 6 9 12 11 11 10 11 11 10 10 12 13 7 5 11 8 6 6 4 3 4 5 4 3 3 2 3 3 4 4 3 3 4 4 5 5 5 5 5 4 4 4 4 3 4 4 4 5 4 3 3 3 2 3 2 2 2 2 3 2 3 4 2 1 0 2 4 2 1 2 6 5
4 4 3 5 5 8 9 8 9 6 6 7 2 1 4 4 2 4 4 2 2 4 6 9 9 8 7 8 10 11 12 11 12 10 9 6 12 19 20 12 7 6 8 11 10 8 6 3 3 4 3 4 3 4 4 2 3 3 4 4 5 6 5 5 5 4 4 3 4 4 4 5 3 4 4 4 3 2 2 2 3 2 2 2 2 2 3 3 1 1 4 3 1 0 2 6 5
5 9 5 4 5 6 7 5 8 8 5 3 1 5 6 7 1 3 5 2 2 5 8 9 9 9 8 8 10 11 11 11 11 10 10 8 8 9 10 9 7 12 12 10 10 5 2 1 4 3 3 3 3 3 2 3 3 4 3 4 3 5 4 4 4 4 4 4 4 3 4 5 5 4 4 3 4 3 2 1 2 2 3 2 2 3 2 3 3 3 3 2 2 2 5 5 5
4 4 4 7 9 8 6 7 6 8 6 4 5 5 6 2 3 4 2 1 5 6 7 6 9 9 9 9 8 8 11 12 12 9 7 6 7 9 7 8 9 11 12 12 11 12 9 6 6 6 5 3 2 2 3 2 1 1 2 3 3 4 3 4 3 3 4 4 4 3 3 4 4 4 4 4 3 3 2 2 2 2 2 3 3 2 1 2 2 4 4 4 3 5 5 4 5
3 3 3 5 8 7 6 3 6 2 3 7 7 7 5 2 1 4 3 3 5 9 5 7 6 8 9 10 9 8 8 7 10 10 11 10 10 9 8 9 11 9 10 11 8 8 8 8 7 7 7 7 6 5 3 2 3 4 3 1 3 5 4 5 5 5 5 4 4 4 3 4 4 4 4 4 3 3 3 2 2 2 2 2 2 3 3 2 3 4 4 3 4 5 5 5 5
3 1 4 8 5 3 1 6 5 4 4 5 6 1 3 1 4 5 6 5 4 7 8 6 7 7 8 9 8 8 9 8 9 9 10 10 7 6 8 7 13 12 9 13 11 10 12 12 10 7 7 7 7 8 8 7 6 4 2 2 1 3 5 5 6 6 6 6 5 5 4 4 3 4 4 4 3 4 2 2 2 1 1 1 3 3 4 3 5 5 4 4 5 5 6 6 5
1 0 3 4 3 3 5 1 1 6 2 7 4 5 8 7 7 3 3 6 5 3 5 5 6 7 8 9 8 8 8 9 9 8 8 6 6 7 10 10 11 13 11 7 10 11 9 7 7 8 10 10 9 8 5 6 7 7 6 5 4 4 4 5 5 5 5 5 5 5 5 5 4 4 4 3 4 3 3 3 3 2 1 3 4 6 5 4 5 5 4 4 4 5 5 5 6
2 2 2 2 1 3 3 1 1 6 1 5 4 4 9 10 5 6 4 7 11 8 6 5 6 6 7 8 8 9 10 9 7 5 5 6 3 5 10 9 3 2 4 4 13 14 9 4 3 6 9 10 10 9 7 6 5 5 5 5 5 4 4 3 4 4 4 4 4 5 5 5 4 4 3 5 4 4 4 3 3 3 2 3 5 5 5 2 5 5 4 6 5 5 5 4 6
1 1 4 4 2 5 6 4 4 3 1 1 4 2 9 9 4 5 5 5 8 9 7 7 7 7 8 8 8 9 8 3 3 3 4 2 2 1 1 4 3 3 5 6 7 8 8 6 5 3 1 2 4 7 8 8 8 6 5 6 6 5 4 4 4 5 4 4 5 5 5 5 5 4 4 4 5 4 5 5 4 3 3 3 4 4 4 4 4 4 3 6 6 4 6 5 5
5 2 4 0 1 4 5 2 3 5 2 0 5 6 3 4 4 5 5 6 7 8 6 7 8 8 8 8 8 6 6 4 4 4 3 4 3 3 6 5 3 5 6 6 7 9 8 7 5 5 5 4 2 4 7 4 3 5 5 4 5 5 5 5 4 4 4 4 5 5 5 5 5 5 5 4 5 5 4 4 4 4 3 4 5 5 4 3 4 5 3 2 4 5 6 7 7
2 2 1 1 0 1 1 7 3 1 4 1 2 3 8 4 1 2 2 7 8 8 8 7 8 7 7 7 6 6 6 7 9 6 3 5 5 7 7 8 8 8 8 10 10 13 13 11 11 10 7 6 8 9 5 4 3 1 2 3 2 3 5 5 4 4 5 5 5 5 5 5 5 5 5 4 4 4 4 4 4 4 3 3 4 5 4 3 2 4 5 3 4 6 6 7 8
1 0 2 2 2 1 3 1 3 2 1 4 1 4 10 10 2 1 7 7 9 11 9 4 4 4 3 3 4 5 6 9 7 4 6 5 6 8 9 10 10 10 10 12 11 10 10 10 9 13 14 14 13 8 6 7 5 2 3 5 3 3 3 4 4 4 5 5 6 6 5 5 5 5 5 5 5 4 5 4 5 4 3 3 4 4 5 4 3 3 5 4 4 3 5 6 8
5 2 2 1 3 4 3 4 4 2 3 5 4 7 11 12 3 1 4 6 8 11 3 5 4 2 2 3 4 5 7 6 4 6 7 6 7 9 9 9 9 10 10 8 10 10 12 13 14 11 12 15 12 8 8 7 7 7 6 6 8 8 5 5 4 5 5 5 5 5 5 5 5 5 4 5 5 5 5 5 5 4 3 4 4 4 4 5 6 6 4 6 6 5 4 6 8
2 1 0 2 2 6 3 4 6 3 2 8 8 9 7 5 1 3 2 3 5 5 5 4 5 5 5 5 5 6 6 2 4 7 7 8 8 8 9 9 7 7 2 6 9 11 10 9 3 9 6 5 7 6 3 7 7 7 6 6 7 7 7 6 5 5 5 4 2 2 5 5 5 5 5 5 5 5 4 4 5 4 4 4 4 4 3 4 4 4 6 4 7 7 4 5 7
0 0 1 5 0 5 5 3 4 3 6 5 3 1 7 2 4 5 6 2 4 9 6 4 6 6 5 7 7 3 2 2 6 6 6 8 8 9 6 6 7 8 6 6 8 7 6 4 4 2 4 7 10 7 7 7 6 7 6 6 7 6 7 8 7 5 5 4 5 5 4 4 3 5 6 5 4 5 5 4 5 5 5 4 3 3 3 3 4 4 5 4 1 5 4 6 8
1 2 1 1 5 5 9 4 3 2 6 8 1 5 4 2 5 9 6 4 3 5 3 3 2 1 0 5 7 6 5 4 3 3 5 7 7 7 4 4 2 1 3 5 2 3 4 5 7 8 7 11 17 22 20 17 13 10 9 6 7 3 3 4 4 3 3 3 4 5 5 6 6 4 4 5 5 5 5 5 5 5 5 5 5 4 4 5 5 6 6 6 6 2 3 5 5
3 0 1 4 3 2 6 6 6 5 1 2 2 4 1 7 3 5 10 10 6 6 3 3 4 5 4 3 5 7 6 7 7 7 6 7 8 7 5 5 3 3 4 5 3 4 5 6 8 11 12 10 10 8 10 15 16 15 10 6 5 4 3 3 3 4 5 4 4 5 4 4 5 5 4 4 4 4 5 5 4 5 5 5 6 6 5 6 7 6 5 5 7 7 4 3 3
2 3 3 1 2 4 6 5 4 3 3 4 6 5 2 8 7 9 10 11 12 14 12 13 12 8 3 4 4 5 8 9 9 8 8 8 11 10 8 7 6 5 6 5 3 6 6 9 11 12 12 12 11 7 5 5 7 7 6 6 5 5 4 4 4 4 5 6 5 5 6 5 5 6 6 5 4 5 4 4 5 5 5 5 5 5 6 7 8 7 7 7 7 8 7 3 3
2 5 8 6 5 5 1 3 3 6 4 5 4 3 1 4 5 8 6 8 11 10 14 13 12 12 9 4 5 2 4 6 12 13 12 9 7 7 8 6 6 5 6 3 2 3 4 7 10 9 6 4 4 5 1 4 8 10 8 6 7 7 6 8 9 8 7 6 5 3 4 5 5 5 5 5 5 4 5 4 4 5 5 6 5 6 5 5 6 7 7 7 5 4 9 7 6
2 6 10 9 5 3 2 1 4 3 3 2 2 6 1 4 9 10 10 6 9 11 13 12 12 12 12 5 1 5 4 3 4 5 7 7 6 7 8 7 4 2 1 3 3 4 7 7 8 2 3 4 6 5 3 3 6 9 13 14 11 10 8 5 4 4 5 4 3 5 5 5 5 7 6 6 6 5 5 5 5 5 5 5 5 5 6 7 7 7 6 6 6 5 5 8 8
3 4 5 5 6 6 4 4 3 2 3 3 4 4 3 4 7 7 8 2 6 14 16 16 14 13 13 11 9 5 2 4 7 7 8 8 7 8 10 5 5 6 5 4 3 4 3 6 10 9 5 4 5 4 1 3 5 4 3 4 4 6 7 5 6 4 4 6 6 6 5 5 5 5 6 6 6 6 5 5 5 5 5 6 6 6 7 6 6 5 7 6 5 6 7 8 7
4 4 7 7 8 5 5 4 3 0 2 4 5 2 6 2 6 9 6 9 11 12 13 14 14 14 13 11 9 7 3 2 8 9 8 8 6 3 3 3 3 5 6 8 8 7 7 4 1 2 5 6 6 6 4 2 2 4 3 4 5 4 5 5 5 5 5 4 4 3 4 4 5 5 5 6 5 6 6 6 6 5 5 5 6 6 5 6 8 8 7 6 6 6 6 6 7
7 4 4 4 5 4 5 4 5 1 3 1 3 1 5 2 5 8 7 4 11 10 9 11 12 12 12 11 10 10 8 7 8 8 8 8 8 7 5 4 4 2 0 3 5 7 9 6 4 3 3 4 4 5 5 5 5 3 0 0 2 2 4 4 6 6 6 5 5 4 4 4 5 5 5 5 5 5 5 6 6 6 6 6 5 6 6 7 7 8 9 8 6 7 5 6 7
1 4 4 3 7 3 4 6 4 3 1 4 5 2 6 1 3 5 5 4 5 7 4 8 10 11 11 10 10 9 8 8 8 8 9 7 7 8 7 6 5 5 5 3 3 3 4 10 7 5 3 4 4 4 4 3 3 1 0 1 3 4 5 6 6 6 6 5 6 5 5 5 5 6 5 5 5 5 5 5 6 6 5 5 6 6 6 7 7 8 8 7 7 7 6 6 4
4 3 4 3 2 6 4 3 5 3 2 3 3 4 3 4 1 4 4 4 6 7 7 9 10 10 10 9 9 10 10 9 9 8 8 8 9 8 8 8 6 5 6 7 6 4 4 4 7 8 6 6 5 5 4 3 2 1 1 2 4 5 6 7 8 8 8 8 7 6 5 4 5 5 5 5 5 5 5 5 5 5 5 5 6 6 5 6 6 6 6 7 7 6 5 6 4
3 5 6 6 2 2 1 1 1 3 5 1 4 3 7 5 3 3 5 6 7 6 6 7 9 9 9 10 10 9 9 10 9 8 8 8 8 8 8 6 7 7 6 6 7 7 4 5 6 7 6 6 6 7 7 5 1 3 4 4 4 3 4 7 8 7 7 7 7 6 5 6 5 5 5 6 6 7 6 6 6 6 5 5 5 5 5 5 5 5 6 6 6 6 7 6 6
6 7 6 6 2 2 2 1 0 3 4 2 3 1 6 3 0 1 1 3 4 5 6 7 8 8 9 10 10 10 10 10 9 9 8 9 8 7 6 6 5 4 4 5 6 7 6 4 3 5 5 6 7 6 8 9 9 7 6 7 7 7 5 5 6 7 7 7 7 7 7 7 6 6 6 7 6 6 6 6 6 6 6 5 5 5 5 5 5 6 6 6 6 6 5 6 7
8 3 9 8 7 4 2 3 4 7 6 1 3 3 3 5 2 2 4 1 3 6 7 8 9 8 8 9 11 12 12 10 9 9 9 8 8 6 4 3 4 4 4 4 3 5 7 4 0 2 2 3 6 8 7 8 8 10 9 8 8 8 7 6 6 6 7 7 7 7 7 6 7 6 6 5 4 6 6 5 6 6 6 5 5 4 5 5 5 5 6 6 5 5 6 6 5
1 4 6 8 5 7 2 4 4 3 2 3 6 1 0 2 2 2 4 1 3 3 6 8 11 10 10 11 11 10 10 10 9 10 10 11 8 7 7 6 4 4 7 7 5 4 5 5 5 4 6 6 6 8 8 10 10 8 7 8 9 9 9 8 7 5 5 6 7 7 7 6 6 5 5 5 5 6 6 6 6 6 5 5 5 5 5 6 5 6 5 5 5 3 6 5 5
4 4 4 4 4 10 5 1 0 4 7 1 0 3 4 1 1 2 3 1 3 4 7 8 9 10 10 10 10 10 9 9 9 8 8 9 11 11 10 11 9 6 1 2 3 4 5 5 3 4 4 4 5 6 6 6 8 10 10 9 8 8 10 11 9 8 7 6 5 5 6 5 3 3 6 4 6 4 6 6 6 5 5 5 5 5 6 5 5 6 6 6 5 4 5 5 5
6 1 6 3 4 6 7 5 3 3 4 1 1 2 5 2 2 1 3 7 6 7 7 7 7 7 8 7 7 7 8 8 9 10 9 9 10 10 10 10 11 11 10 7 6 5 5 4 3 3 3 5 5 5 6 5 6 8 8 10 10 10 10 9 9 9 7 6 5 4 5 6 5 2 3 5 6 6 5 6 6 5 5 5 5 5 4 5 5 5 5 5 5 5 4 3 5
9 8 5 5 1 2 2 5 1 1 0 1 3 3 0 1 2 1 4 6 7 6 6 6 8 8 8 8 9 9 10 9 9 10 10 11 11 11 11 11 11 11 10 11 11 9 9 8 6 4 6 7 7 6 5 4 6 6 8 10 10 9 8 8 7 7 7 7 7 6 7 7 7 8 6 6 6 7 6 5 5 6 5 5 5 5 5 5 5 5 4 4 3 5 5 5 4
4 4 3 0 6 4 3 4 4 7 3 3 1 2 2 3 3 2 4 6 8 7 6 6 7 8 7 8 8 9 8 8 8 8 8 9 9 10 10 10 11 11 11 11 11 11 14 12 10 5 5 7 7 6 3 5 8 6 4 2 4 5 6 6 5 5 5 6 6 6 7 7 9 6 5 6 7 7 6 6 5 6 5 5 6 5 5 5 5 5 5 5 4 4 5 5 3
1 2 1 1 2 2 6 1 2 4 6 5 5 1 4 3 3 2 2 5 6 8 6 7 7 7 8 9 9 8 9 8 8 8 8 9 10 10 10 10 10 10 10 11 11 11 10 10 12 10 5 5 6 4 1 6 4 6 5 4 4 4 5 4 4 6 7 6 5 6 7 7 6 7 5 5 7 6 5 5 5 5 6 6 5 5 5 5 5 4 4 4 4 5 5 4 4
7 7 5 7 7 3 4 3 2 3 6 5 6 4 3 2 2 1 5 5 7 7 6 7 7 7 8 8 9 9 8 9 9 9 8 9 9 10 9 10 10 11 11 12 11 11 11 11 10 8 9 8 8 5 4 5 4 6 7 4 5 4 3 0 2 3 6 6 7 8 6 6 7 6 6 6 7 5 4 5 5 4 5 5 4 5 4 5 5 4 4 4 5 5 4 4 4
Wind_Direction
209 174 168 158 81 96 67 0 155 303 75 255 302 187 261 220 255 330 277 321 6 356 311 36 48 58 187 189 154 133 35 138 191 139 215 231 157 137 137 134 135 136 142 144 145 143 144 140 141 138 138 141 141 140 136 131 128 125 123 121 119 119 119 120 119 117 117 116 116 116 117 117 117 115 115 115 115 111 108 107 104 101 101 104 107 102 104 109 101 89 84 86 84 81 80 79 82
217 7 142 152 105 75 239 125 100 353 38 353 246 132 246 254 81 228 255 252 218 152 125 84 81 85 89 113 130 147 55 35 283 165 83 95 106 117 143 140 144 146 146 143 144 139 143 142 142 140 143 143 144 142 138 133 130 128 126 123 123 123 123 122 121 120 119 119 118 118 119 119 118 118 119 119 117 113 111 108 104 103 103 103 103 105 105 100 87 87 90 88 85 85 82 81 74
229 129 58 40 24 87 95 43 262 62 118 240 272 208 307 304 228 256 237 236 211 166 189 110 111 84 62 78 22 28 221 30 84 108 112 149 123 168 152 145 143 145 144 142 142 141 142 146 146 145 145 144 145 141 138 135 133 131 129 129 129 127 126 124 123 122 121 120 119 119 120 121 122 121 120 121 118 116 114 107 107 106 103 102 103 105 102 100 98 97 97 92 88 88 84 77 72
81 38 138 71 268 22 74 28 88 131 159 221 296 261 219 212 246 236 246 222 200 181 167 22 44 292 128 57 117 115 91 166 215 155 140 176 179 144 145 139 137 140 137 140 141 143 145 149 148 148 145 145 144 143 141 138 137 135 133 133 130 129 126 125 125 124 122 121 121 121 123 124 124 122 123 122 119 114 110 107 104 101 99 101 100 97 98 97 97 100 98 95 89 81 76 72 69
62 13 85 103 111 327 115 189 147 111 218 190 207 269 229 227 251 286 279 53 298 205 114 134 80 345 63 114 19 109 214 113 162 220 90 79 116 142 139 139 139 139 138 140 142 143 149 151 151 148 147 148 147 144 144 142 140 138 135 133 131 129 128 127 128 125 125 124 123 125 125 125 124 123 122 121 119 114 101 98 101 100 99 93 89 88 89 94 98 100 97 93 86 81 76 72 65
55 51 1 90 140 188 52 37 245 202 232 154 231 262 244 233 248 280 293 314 247 160 113 84 152 172 28 336 149 181 144 157 177 144 139 149 136 141 137 139 135 137 138 138 143 146 154 152 151 150 152 150 148 147 148 144 143 140 136 135 133 132 130 131 130 128 126 126 126 127 128 126 125 124 123 123 121 112 110 108 103 101 99 97 97 96 96 97 99 98 96 90 85 81 77 74 69
209 54 354 23 1 61 172 156 225 218 264 171 240 260 261 282 257 340 305 351 25 65 340 140 120 103 90 269 32 47 299 150 144 177 145 139 130 136 140 141 141 139 141 144 146 150 155 154 154 153 152 151 150 150 148 147 143 140 138 136 134 134 135 134 133 131 129 128 128 129 128 128 126 125 124 123 120 116 113 113 108 104 103 102 99 96 97 97 95 93 92 90 87 85 85 79 75
99 116 232 113 221 54 217 224 247 161 272 188 243 261 272 269 304 309 291 52 276 143 91 146 121 93 245 293 182 283 350 353 119 112 118 131 134 137 142 145 140 141 145 147 151 150 158 156 155 153 152 150 151 151 150 148 143 139 138 139 137 138 137 135 135 131 130 129 130 130 129 131 129 126 125 126 122 117 117 114 108 105 104 100 99 101 100 99 99 98 94 93 92 90 87 85 79
350 87 356 85 187 33 43 239 253 229 274 274 266 257 274 273 280 269 288 260 299 109 154 176 256 83 244 47 71 290 360 73 95 113 123 129 137 140 142 147 143 142 147 151 149 154 152 159 154 151 151 151 152 152 151 148 143 140 139 141 141 140 138 135 134 132 130 130 131 131 130 130 129 127 129 127 121 117 114 110 108 108 106 107 108 107 104 101 100 100 97 95 93 90 90 87 78
29 102 245 161 120 223 347 287 220 243 223 244 246 264 260 274 276 244 255 304 213 130 349 39 50 128 138 108 74 353 352 98 109 104 119 130 132 135 144 150 150 145 149 149 152 151 146 155 150 147 148 152 153 152 149 146 143 143 142 142 142 139 136 133 131 133 133 133 132 131 130 130 128 129 129 126 122 118 115 111 111 111 110 109 110 109 105 102 100 98 98 96 90 88 85 79 76
203 3 151 87 45 177 229 275 266 296 264 289 288 255 250 256 246 274 219 195 214 146 132 97 47 108 89 50 323 275 63 121 124 130 134 132 134 143 142 144 151 149 148 150 149 140 146 146 148 145 148 150 149 147 145 143 142 144 141 142 139 138 134 131 130 130 132 132 133 130 129 128 130 132 132 129 123 122 113 112 113 113 113 111 112 112 110 106 103 101 100 96 94 89 77 71 71
92 156 29 115 180 166 230 216 271 271 284 291 280 273 244 216 187 205 203 133 162 124 165 146 165 158 72 108 360 39 93 113 128 133 133 132 138 138 138 139 144 149 146 146 141 136 136 143 147 151 152 149 146 145 143 143 144 145 145 140 136 134 132 130 128 129 133 133 131 128 128 132 135 135 132 129 126 121 117 117 115 118 117 116 114 114 112 109 107 104 98 94 89 80 74 69 66
145 103 89 89 226 140 225 271 259 274 305 285 232 268 99 139 167 187 103 97 120 137 268 196 142 115 101 139 323 48 139 150 144 135 131 134 133 132 130 136 141 141 146 140 136 136 134 143 146 147 153 150 146 143 142 144 147 147 143 138 135 132 132 131 131 134 135 131 129 131 130 133 134 134 131 131 127 122 121 121 121 120 120 118 115 114 114 112 109 103 96 90 81 77 73 63 59
127 181 122 212 80 182 167 248 275 311 292 253 260 271 271 160 253 165 108 74 357 159 263 137 123 115 79 89 187 199 197 164 151 138 128 127 130 133 135 137 138 143 143 142 138 136 139 143 143 144 152 144 143 145 146 146 148 144 139 136 134 134 134 134 135 137 136 136 134 132 131 132 134 133 134 134 127 125 124 123 123 124 122 119 118 114 112 108 103 96 90 86 84 76 70 62 61
210 173 84 133 275 74 246 180 206 168 266 266 271 342 335 34 87 69 105 109 339 155 102 31 164 108 202 170 200 202 177 167 149 136 129 124 122 126 135 135 138 142 141 140 137 140 142 141 138 140 140 139 141 139 141 152 147 144 137 133 134 136 134 134 137 139 144 143 138 134 133 134 133 135 135 131 130 129 127 124 125 125 122 121 116 113 108 102 95 88 87 87 84 78 73 65 65
192 94 96 166 250 168 265 201 265 197 262 266 271 331 334 48 83 114 275 157 142 110 134 190 212 209 183 177 207 174 157 150 144 132 128 123 119 120 135 137 133 138 135 134 139 141 142 140 139 136 131 133 135 132 142 146 152 141 135 133 136 137 134 134 138 144 149 149 146 142 139 137 136 139 140 137 135 132 127 128 128 126 124 121 119 111 102 95 90 87 86 87 83 78 73 72 86
95 81 293 76 270 158 257 185 140 238 258 275 297 13 91 6 320 67 354 89 127 178 355 328 312 5 172 186 122 135 133 135 134 132 125 128 131 128 127 134 126 126 138 141 142 143 142 142 140 137 138 138 140 142 144 143 155 146 140 141 142 141 137 140 142 147 145 146 147 139 130 123 127 138 137 142 137 130 132 131 131 130 126 124 119 110 102 95 91 89 87 83 78 74 73 71 89
95 181 135 258 192 187 219 205 196 173 239 290 330 331 68 31 1 80 28 26 52 50 46 329 25 28 54 300 125 121 126 136 143 140 142 140 146 137 133 134 132 135 140 143 140 145 146 144 144 146 147 150 148 147 145 147 152 145 138 147 146 146 145 144 144 140 143 141 147 137 125 127 121 126 141 142 127 139 136 136 136 134 130 126 122 114 106 99 94 90 85 78 78 74 71 68 71
177 179 124 222 183 239 182 220 256 321 269 270 294 296 357 84 127 286 84 307 12 60 330 21 49 27 71 103 119 119 129 136 146 149 149 152 154 144 136 132 137 125 141 150 149 156 153 150 152 154 156 153 151 147 144 143 138 138 151 147 150 154 152 139 136 138 133 137 130 131 132 122 128 136 135 144 143 144 141 141 140 137 133 131 127 117 108 101 95 89 82 80 79 79 65 69 86
226 122 221 236 204 242 260 255 283 265 276 296 294 314 8 310 119 157 135 183 340 171 195 337 22 124 112 124 124 127 133 141 152 155 157 158 149 138 127 132 138 157 163 170 157 154 155 162 162 159 155 153 149 142 134 133 141 150 152 144 139 146 142 136 137 140 132 125 126 117 121 122 113 115 155 151 148 143 146 145 145 139 135 132 127 105 101 103 92 81 79 77 81 79 78 82 90
283 143 211 230 207 231 264 245 251 277 307 285 232 301 43 327 64 100 142 86 295 284 247 177 194 158 144 144 141 141 144 151 156 158 156 147 102 60 55 349 193 179 176 157 151 154 159 164 157 150 148 148 143 144 149 152 146 150 145 142 141 141 130 130 128 115 123 129 122 117 119 124 128 147 151 129 109 135 121 131 134 119 113 100 102 85 68 61 59 53 31 57 70 88 89 90 93
112 215 245 203 301 193 256 232 268 264 266 291 258 21 257 304 89 96 136 135 224 220 233 230 187 153 149 154 155 148 151 154 149 139 122 101 63 83 102 177 254 234 151 160 162 153 163 146 131 137 147 148 150 159 157 152 151 148 144 143 133 125 131 128 125 134 137 145 137 127 116 112 117 121 115 124 147 135 130 128 130 127 114 120 102 100 84 74 44 28 48 49 55 78 96 104 99
238 295 235 212 224 237 276 160 246 238 270 240 290 275 98 59 270 171 150 171 234 226 238 198 158 169 162 149 145 150 144 121 101 96 82 81 113 145 166 187 183 174 173 164 160 144 118 104 123 135 148 145 143 128 113 136 136 128 111 116 121 123 123 128 137 147 153 156 143 136 131 129 137 147 147 158 166 150 141 148 152 150 140 127 127 118 106 83 71 19 39 49 45 49 94 110 112
181 247 266 274 199 231 251 257 278 289 218 241 222 17 297 4 319 183 205 218 241 300 152 114 118 120 139 149 159 133 104 106 114 107 107 124 125 148 216 183 197 164 150 130 75 74 94 115 119 123 96 100 115 120 130 133 111 117 130 142 123 137 131 133 143 160 156 154 131 127 121 133 149 155 169 166 172 155 162 161 151 146 141 143 127 125 120 111 107 60 45 47 35 39 88 108 119
199 254 254 257 259 242 254 242 252 264 263 268 326 178 241 193 212 8 288 286 345 78 98 112 121 127 132 130 118 121 128 113 107 112 115 151 167 169 184 183 162 100 67 47 31 22 16 52 97 108 106 117 112 133 144 101 112 120 142 137 140 146 137 147 155 156 149 127 124 125 131 138 146 158 171 173 154 172 159 157 164 172 161 159 137 142 138 144 156 80 73 70 78 55 74 109 115
204 225 233 270 262 261 249 254 247 239 258 252 235 246 269 235 339 267 265 301 111 103 98 121 126 135 124 117 139 144 126 126 134 137 146 164 176 170 183 163 108 97 100 115 113 110 6 314 127 119 125 128 122 135 123 127 132 157 156 145 155 137 143 147 148 148 131 127 120 126 146 155 163 166 169 161 166 172 170 156 174 184 172 161 144 158 177 153 146 90 88 101 88 65 78 108 110
178 216 230 250 254 256 256 218 233 222 220 182 196 243 258 301 149 277 322 211 122 99 118 133 145 132 126 140 143 136 140 146 142 144 152 176 183 189 167 120 115 130 138 140 151 165 166 162 155 150 124 135 54 43 30 51 77 150 145 132 119 129 138 127 131 126 125 135 138 143 159 164 153 153 161 170 173 159 166 169 208 203 165 173 169 150 115 139 137 121 134 144 123 97 91 87 99
239 229 294 268 257 250 248 259 236 153 250 182 183 227 251 297 148 221 233 185 144 134 146 150 124 125 139 146 145 141 140 141 142 155 175 189 182 185 164 145 129 147 146 155 165 149 155 162 158 157 141 134 136 114 100 52 20 7 350 4 120 139 145 149 151 146 147 149 149 156 158 160 159 161 161 169 164 161 181 173 206 207 209 189 143 132 132 130 104 96 116 113 103 105 101 85 88
275 336 317 286 347 320 236 198 221 164 248 158 164 319 311 305 226 241 209 150 150 152 160 144 120 136 138 150 149 150 156 158 160 168 184 199 186 159 158 160 150 159 180 165 158 160 168 171 168 149 130 134 145 161 169 155 140 149 206 283 252 184 157 154 156 162 160 164 164 157 158 163 162 160 165 172 162 168 161 149 195 214 153 128 150 129 111 107 95 99 85 88 96 99 98 93 87
345 69 179 318 355 335 276 258 137 163 241 161 157 269 268 257 252 311 233 140 112 125 168 145 143 147 151 155 160 150 166 171 180 178 185 205 188 165 158 188 174 157 165 166 148 170 173 172 156 148 152 155 160 169 169 167 161 160 168 182 203 198 176 158 162 162 165 166 160 156 162 164 151 153 155 158 162 156 150 165 172 159 155 165 140 122 123 127 107 106 114 101 99 101 104 106 99
227 249 75 232 9 267 290 188 185 159 144 183 90 225 285 282 251 250 231 161 155 176 182 150 156 156 160 163 163 169 186 188 171 174 191 207 156 188 181 187 159 82 95 183 178 167 158 133 132 161 167 165 164 167 168 178 161 155 161 165 182 190 175 158 151 158 164 160 150 159 162 159 154 159 160 157 166 156 155 163 171 146 179 166 134 133 130 117 116 127 133 108 96 92 98 96 102
5 23 291 327 162 275 297 297 148 154 335 237 101 269 254 266 320 211 198 180 170 183 180 175 176 168 169 168 166 177 182 180 205 184 202 150 61 268 21 44 20 43 61 67 48 59 63 51 45 43 25 196 192 177 178 178 168 159 149 176 175 172 166 170 170 174 166 152 157 163 167 159 158 166 164 163 160 164 161 165 156 140 176 151 123 109 122 138 118 118 127 134 115 102 108 97 99
353 114 269 294 265 257 345 358 290 193 141 317 172 225 328 329 335 201 183 164 192 194 184 186 186 182 173 174 172 157 143 159 210 213 190 99 107 97 108 120 79 95 103 114 128 115 93 95 112 156 158 193 267 220 206 159 122 126 151 176 177 165 172 178 179 164 155 161 162 171 171 160 161 169 167 170 164 162 162 157 150 150 170 155 137 130 136 142 142 135 115 83 112 128 116 107 102
311 11 185 205 225 311 257 301 5 221 173 190 272 219 245 188 29 61 244 194 190 210 206 190 192 184 183 173 151 150 155 174 198 196 122 81 104 111 115 132 143 148 163 162 155 153 163 166 163 148 139 166 203 209 191 109 96 109 136 127 145 199 181 178 175 162 167 169 170 174 171 163 161 167 167 167 170 168 162 155 141 144 157 151 131 124 133 131 129 130 120 76 105 124 126 124 117
194 326 23 333 333 254 231 14 267 61 305 215 223 226 257 262 95 288 206 206 203 212 211 174 191 188 179 128 136 146 167 195 194 121 109 116 126 133 142 155 165 175 182 175 159 165 161 166 168 163 161 174 202 186 119 100 102 100 94 119 160 231 209 185 178 170 173 173 179 171 169 166 164 168 168 167 167 165 156 150 141 147 152 145 125 125 131 130 115 115 130 104 71 71 127 128 120
167 147 149 170 328 306 312 250 262 217 273 266 198 214 247 258 325 287 245 224 208 224 115 138 140 128 145 146 142 169 191 198 98 129 134 141 156 154 161 175 184 188 193 155 162 170 177 184 187 180 182 179 178 136 127 136 157 172 167 158 185 194 194 193 194 184 173 180 173 169 173 165 168 158 164 172 169 167 161 155 144 141 143 140 139 138 140 143 141 136 131 123 113 100 89 116 116
134 82 73 286 276 289 281 268 269 213 249 244 221 225 243 285 276 256 258 293 253 255 211 163 170 169 181 158 169 181 196 139 141 130 149 156 169 169 170 172 185 207 167 168 178 185 187 189 212 214 201 134 94 86 120 158 181 186 180 187 196 187 185 188 194 188 184 157 131 171 178 168 160 151 164 176 171 168 160 146 139 135 137 145 158 158 155 153 133 129 135 128 133 123 117 119 117
147 62 332 298 94 278 268 282 314 307 172 281 235 169 251 258 307 322 3 28 240 217 221 229 183 184 182 180 181 148 83 32 103 123 152 167 187 178 165 158 176 190 201 196 192 183 170 154 150 105 92 109 105 143 178 176 199 197 173 184 194 188 177 182 190 190 190 125 165 181 168 151 180 176 169 166 160 168 160 159 154 151 149 152 153 136 149 144 127 130 134 103 60 130 135 146 142
86 192 184 348 286 245 279 273 268 302 151 263 122 175 241 340 325 350 17 332 288 301 320 339 316 233 69 40 57 63 74 76 100 134 178 185 190 167 139 168 167 328 230 215 184 154 160 157 164 165 177 163 187 190 179 176 175 176 177 179 188 159 169 174 178 171 147 141 181 169 166 166 175 174 170 168 166 171 172 166 167 155 157 153 142 148 158 152 153 154 159 146 125 47 103 144 146
177 87 82 222 238 14 305 294 316 346 83 214 156 149 317 348 64 28 10 10 341 354 74 60 74 76 78 143 147 127 123 127 143 175 184 181 178 166 169 186 133 153 200 217 196 179 175 178 186 186 196 204 209 222 205 180 169 168 163 141 151 148 144 142 139 152 126 160 184 165 163 165 171 155 178 176 163 173 174 177 162 160 164 164 159 160 170 162 155 159 156 155 141 132 154 157 147
282 177 149 181 239 222 178 259 312 326 8 76 84 43 351 14 23 9 350 348 4 14 22 20 12 24 101 92 85 129 150 157 158 166 179 185 179 181 194 178 140 175 201 205 197 192 189 192 201 199 203 208 220 223 202 154 143 127 114 103 120 111 119 148 159 166 164 177 167 155 172 171 173 163 175 178 179 172 178 172 169 170 162 165 163 167 176 177 168 164 165 157 170 155 154 137 171
317 226 177 196 223 258 271 312 12 26 353 353 108 45 341 301 21 19 346 358 9 7 29 18 10 11 0 86 114 118 155 177 166 173 172 174 169 164 200 185 175 182 194 195 234 226 214 210 218 219 236 302 350 12 340 172 156 154 144 157 160 167 161 172 184 176 161 169 166 163 153 172 171 168 175 177 176 167 180 181 175 172 166 167 176 179 178 166 163 165 172 167 171 188 152 150 161
123 270 169 197 198 158 155 313 67 7 95 348 66 134 240 328 19 354 354 357 8 14 29 20 20 16 20 4 111 143 144 91 64 97 138 149 142 173 194 182 165 114 62 45 15 355 331 286 255 310 349 16 14 27 354 300 192 183 180 184 186 182 178 174 166 176 155 118 157 196 174 173 175 169 177 180 180 178 175 182 183 181 178 174 175 168 177 177 175 174 165 172 174 154 142 155 167
222 238 139 146 137 140 191 109 115 189 249 295 42 89 132 342 330 344 334 315 35 23 15 17 21 26 29 31 17 357 77 134 129 135 141 147 162 190 199 156 127 123 126 116 131 97 32 331 329 352 15 10 13 30 44 335 304 271 199 165 168 177 176 153 151 157 133 142 177 195 176 181 181 178 174 184 184 180 175 183 186 184 186 186 178 179 182 179 167 173 176 174 164 172 165 161 165
211 242 142 163 179 165 155 99 113 117 115 275 326 22 67 337 297 322 350 16 13 25 14 12 13 22 30 32 27 24 360 142 150 151 155 160 172 209 22 55 72 123 157 161 158 151 131 119 67 350 1 12 6 10 13 349 345 307 268 168 162 166 138 138 137 141 148 158 178 190 188 187 188 186 184 185 187 182 179 183 187 188 189 194 188 180 175 168 169 168 171 163 178 178 181 169 159
264 226 84 60 71 70 113 104 92 359 65 271 264 66 113 295 314 335 356 33 6 359 3 12 15 16 27 31 38 36 36 33 25 30 38 33 26 32 43 53 31 7 155 219 188 162 133 126 130 105 51 50 25 24 18 8 0 6 339 272 154 120 120 130 143 151 162 169 183 195 196 191 193 192 193 192 187 187 183 180 184 189 196 188 185 178 164 161 168 173 176 179 178 178 188 170 177
161 123 127 29 45 61 30 64 98 73 45 257 242 326 127 89 305 345 3 13 334 335 0 21 19 17 19 30 41 45 44 40 38 39 41 41 43 47 48 45 19 3 340 313 294 319 113 122 118 100 101 93 70 64 54 24 14 33 35 139 170 160 158 154 154 156 159 168 188 197 198 203 195 198 192 196 190 186 187 183 184 192 192 183 180 175 173 168 168 169 171 168 176 181 186 182 175
126 163 138 108 20 10 32 348 39 101 277 260 275 96 82 130 272 299 9 47 30 4 358 17 25 18 17 28 34 40 41 41 44 44 42 38 38 42 50 40 34 19 13 4 357 355 3 68 107 113 112 109 108 111 95 55 28 64 113 157 176 183 175 177 178 177 176 182 188 194 198 194 206 197 194 194 195 189 181 188 190 185 185 182 183 183 177 170 162 152 155 167 180 185 178 177 173
109 93 69 132 234 51 241 10 172 161 173 184 218 95 46 34 238 298 338 22 36 28 17 24 29 19 20 26 32 37 38 39 40 43 44 43 43 39 31 33 38 23 13 12 4 357 2 49 75 94 114 132 131 136 137 130 152 177 173 175 182 182 212 192 185 182 182 183 184 186 181 200 196 193 203 199 206 186 179 180 181 183 187 191 177 170 179 166 156 153 156 163 168 172 178 176 171
130 146 133 99 108 62 190 273 207 331 299 237 216 250 98 161 122 244 26 59 53 51 45 41 37 32 27 28 28 32 34 35 33 33 34 35 35 42 39 20 28 18 1 11 7 349 334 350 70 109 136 140 133 144 159 165 168 179 181 178 171 168 213 220 204 186 186 186 180 184 186 189 187 199 195 206 197 182 179 182 179 183 186 179 173 169 168 167 162 162 163 163 172 179 170 177 178
192 142 145 172 141 156 203 185 172 194 186 214 290 71 213 145 193 3 302 101 86 70 55 51 51 42 35 40 43 39 37 35 33 33 31 29 25 17 17 23 15 352 352 1 12 347 328 316 351 98 154 191 164 162 167 174 180 180 178 180 175 169 169 224 222 204 184 184 185 181 188 182 186 195 194 196 172 175 175 174 177 177 177 173 166 159 162 164 167 159 164 168 161 162 174 172 174
294 147 68 97 198 138 144 204 147 181 128 29 1 84 235 120 22 346 305 278 86 78 59 47 49 43 37 38 37 36 37 35 31 32 25 20 23 24 17 14 13 14 349 346 360 294 264 286 283 210 192 198 194 172 181 181 185 186 181 179 185 169 168 198 216 215 202 196 184 181 183 182 189 183 189 163 179 167 168 172 175 176 169 165 167 163 162 163 161 156 154 151 155 161 158 170 172
237 98 155 210 172 113 80 45 13 120 67 25 289 124 76 100 132 65 290 124 70 58 53 48 49 50 45 39 31 29 30 31 28 28 26 24 26 27 24 20 21 24 87 21 336 324 301 261 219 247 236 212 208 198 195 197 190 182 187 184 179 176 173 185 195 192 194 198 188 185 171 176 167 179 170 173 162 168 165 166 165 161 164 165 161 164 163 161 158 155 156 155 157 161 157 167 161
84 133 215 112 83 104 129 188 336 59 129 243 47 111 148 132 196 243 212 117 94 70 57 46 45 49 51 43 35 27 22 20 25 28 25 25 25 21 18 20 16 14 15 11 356 330 318 299 260 267 284 289 261 236 220 218 204 200 193 188 187 183 181 186 188 188 183 177 188 166 137 129 116 79 283 190 164 159 170 162 154 160 160 159 162 158 160 157 152 156 159 163 160 154 155 149 172
154 192 175 113 206 222 324 94 64 110 71 144 7 348 125 153 216 252 156 129 121 104 83 54 37 38 42 35 28 25 23 19 16 18 15 15 15 13 12 10 9 11 8 8 4 3 2 344 322 295 276 261 281 263 276 289 267 224 200 194 187 184 184 184 187 183 175 173 173 167 161 159 152 182 183 183 162 160 164 164 159 155 157 158 154 157 155 154 158 156 155 148 149 156 157 172 181
72 102 53 39 103 148 124 197 167 112 186 82 315 25 210 226 210 267 144 137 120 102 83 67 54 46 40 34 26 24 18 16 16 14 16 14 14 13 10 6 7 5 7 7 8 9 7 357 346 340 307 300 286 259 206 256 254 267 254 209 186 182 178 181 177 169 179 177 167 163 165 162 178 180 180 187 159 164 165 161 165 156 157 157 156 159 158 154 155 163 154 146 163 159 163 175 181
22 68 5 320 42 210 104 47 90 163 158 154 136 243 270 256 224 263 171 143 121 116 109 81 56 43 44 39 26 19 19 15 15 11 11 12 13 11 10 9 5 4 9 10 11 8 5 360 357 352 312 285 313 345 209 235 259 272 264 208 188 182 189 179 171 180 176 176 164 164 171 177 161 187 170 187 159 161 163 159 157 161 160 163 161 160 160 152 157 155 153 155 161 166 169 178 163
160 154 178 172 117 132 138 246 21 69 106 171 141 214 268 273 46 1 109 103 97 85 95 86 74 52 43 34 28 27 21 15 15 10 10 8 11 8 6 12 8 9 9 7 5 6 7 1 348 345 347 349 345 330 304 286 239 225 239 224 192 185 165 36 288 236 178 174 168 170 172 163 181 186 168 174 155 155 156 156 155 162 162 160 160 157 156 151 155 153 160 166 166 168 171 171 169